Location: Bakov nad Jizerou
(50.4784°N, 14.9394°E)
Time: 17:47:26
(UTC+00:00)

Cosmos 1703 - Pass Details

Date: 29 October 2021
Orbit: 521 x 539 km, 82.5° (Epoch: 30 November)

Event Time Altitude Azimuth Distance (km) Brightness Sun altitude
Rises 04:17:18 0° 160° (SSE) 2,685 7.2 -14.6°
Reaches altitude 10° 04:19:40 10° 148° (SSE) 1,798 6.4 -14.2°
Maximum altitude 04:23:01 27° 90° (E) 1,057 5.7 -13.7°
Drops below altitude 10° 04:26:23 10° 32° (NNE) 1,805 6.3 -13.2°
Sets 04:28:45 0° 20° (NNE) 2,699 7.0 -12.8°
